Stations météo

Publicité
Grenoble/St.Geoirs, France (7486): Température de l'air & dewpoint: 12.08.2017 03:00:00 - 18.08.2017 03:00:00 (CEST)Grenoble/St.Geoirs, France (7486): Température de l'air 5cm: 12.08.2017 03:00:00 - 18.08.2017 03:00:00 (CEST)Grenoble/St.Geoirs, France (7486): Température de l'air -20cm & Température de l'air -100cm: 12.08.2017 03:00:00 - 18.08.2017 03:00:00 (CEST)Grenoble/St.Geoirs, France (7486): Vitesse du vent & gusts: 12.08.2017 03:00:00 - 18.08.2017 03:00:00 (CEST)Grenoble/St.Geoirs, France (7486): Direction du vent: 12.08.2017 03:00:00 - 18.08.2017 03:00:00 (CEST)Grenoble/St.Geoirs, France (7486): reduced air pressure: 12.08.2017 03:00:00 - 18.08.2017 03:00:00 (CEST)Grenoble/St.Geoirs, France (7486): visibility: 12.08.2017 03:00:00 - 18.08.2017 03:00:00 (CEST)Grenoble/St.Geoirs, France (7486): Ensoleillement: 12.08.2017 03:00:00 - 18.08.2017 03:00:00 (CEST)Grenoble/St.Geoirs, France (7486): Quantités de précipitations: 12.08.2017 03:00:00 - 18.08.2017 03:00:00 (CEST)
Date & Time tt [°C] td [°C] tt 5cm [°C] tt -20cm [°C] tt -100cm [°C] ff [km/h] ff [knt] fx [km/h] fx [knt] dd ppp [hPa] vv [km] sd [min] rr [mm]
18.08.2017 03:00:00 16,5 13,8 14,1 22,1 19,1 6 3 8 5 SE 1018,0 20 0 0,0
18.08.2017 02:00:00 17,0 14,5 14,6 22,2 19,1 5 3 11 6 E 1018,1 23 0 0,0
18.08.2017 01:00:00 17,9 15,2 14,7 22,3 19,1 6 3 9 5 E 1018,2 36 0 0,0
18.08.2017 00:00:00 18,7 15,0 15,8 22,3 19,1 8 4 13 7 ESE 1018,0 33 0 0,0
17.08.2017 23:00:00 18,9 15,8 16,9 22,3 19,1 10 6 14 8 E 1018,0 23 0 0,0
17.08.2017 22:00:00 21,7 16,6 17,8 22,2 19,1 12 6 16 9 E 1018,0 27 0 0,0
17.08.2017 21:00:00 22,3 15,9 19,9 22,1 19,0 12 7 16 8 E 1017,9 38 18 0,0
17.08.2017 20:00:00 26,8 15,8 28,1 21,9 19,0 9 5 14 8 NE 1017,5 39 60 0,0
17.08.2017 19:00:00 28,0 15,6 30,2 21,8 19,1 10 5 16 9 NNE 1017,2 45 45 0,0
17.08.2017 18:00:00 28,5 15,4 32,4 21,6 19,1 8 4 19 10 NNE 1017,0 20 60 0,0
17.08.2017 17:00:00 29,2 15,3 35,1 21,4 19,0 4 2 21 11 W 1017,0 19 60 0,0
17.08.2017 16:00:00 29,0 16,5 31,5 21,2 19,0 8 5 18 10 W 1017,2 32 56 0,0
17.08.2017 15:00:00 28,1 17,3 32,2 21,0 19,1 4 2 16 9 ESE 1017,7 26 57 0,0
17.08.2017 14:00:00 27,3 16,6 31,2 20,9 19,0 8 5 19 10 NE 1018,4 19 51 0,0
17.08.2017 13:00:00 26,6 16,5 26,8 20,9 19,0 12 6 23 12 N 1018,9 48 44 0,0
17.08.2017 12:00:00 25,6 16,2 29,6 20,8 19,0 9 5 18 10 NNW 1019,1 19 55 0,0
17.08.2017 11:00:00 25,0 16,7 29,6 20,9 19,0 5 3 12 7 E 1019,3 32 60 0,0
17.08.2017 10:00:00 23,4 16,2 25,4 20,9 19,0 2 1 6 3 W 1019,7 39 56 0,0
17.08.2017 09:00:00 20,8 16,6 20,1 21,1 19,0 3 2 8 4 ESE 1019,9 20 48 0,0
17.08.2017 08:00:00 17,4 16,1 14,8 21,2 19,0 3 2 10 5 E 1020,2 20 21 0,0
17.08.2017 07:00:00 15,6 14,3 13,9 21,3 19,0 9 5 13 7 E 1020,5 14 0 0,2
17.08.2017 06:00:00 15,7 14,4 13,3 21,4 19,0 5 3 9 5 E 1020,0 9 0 0,0
17.08.2017 05:00:00 16,2 14,9 13,8 21,4 19,0 3 2 8 4 NE 1019,8 10 0 0,0
17.08.2017 04:00:00 16,3 14,8 14,4 21,5 19,0 9 5 11 6 ESE 1019,8 11 0 0,0
17.08.2017 03:00:00 17,0 15,5 14,2 21,6 19,0 2 1 7 4 SSE 1020,1 13 0 0,0
17.08.2017 02:00:00 17,0 15,3 15,4 21,7 19,0 7 4 12 7 E 1019,9 14 0 0,0
17.08.2017 01:00:00 18,0 16,3 15,5 21,7 19,0 6 3 10 5 E 1020,0 15 0 0,0
17.08.2017 00:00:00 18,7 16,5 - - - 4 2 8 4 SE 1020,1 19 - 0,0
16.08.2017 23:00:00 19,3 16,3 16,1 21,7 19,0 3 2 7 4 NW 1019,6 34 0 0,0
16.08.2017 22:00:00 21,0 16,8 17,5 21,7 19,0 5 3 8 4 ESE 1019,1 35 0 0,0
16.08.2017 21:00:00 23,5 16,8 20,4 21,6 18,9 6 3 11 6 E 1018,3 20 13 0,0
16.08.2017 20:00:00 25,2 16,6 24,9 21,5 19,0 8 4 15 8 NNE 1018,1 50 11 0,0
16.08.2017 19:00:00 26,5 16,4 27,2 21,3 19,0 9 5 12 6 NNE 1017,6 35 20 0,0
16.08.2017 18:00:00 27,4 14,8 29,4 21,2 18,9 5 3 9 5 NW 1017,8 55 28 0,0
16.08.2017 17:00:00 27,3 15,6 30,1 21,0 19,0 5 3 14 8 NW 1018,2 57 26 0,0
16.08.2017 16:00:00 26,8 15,2 30,4 20,8 19,0 6 4 15 8 W 1018,3 43 5 0,0
16.08.2017 15:00:00 26,8 15,5 30,3 20,6 18,9 8 4 16 9 W 1018,4 49 24 0,0
16.08.2017 14:00:00 26,4 15,4 32,0 20,6 18,9 5 3 14 8 WNW 1018,4 52 12 0,0
16.08.2017 13:00:00 25,9 15,3 31,2 20,5 18,9 5 3 13 7 N 1018,9 52 52 0,0
16.08.2017 12:00:00 25,0 14,2 27,7 20,5 18,9 8 4 18 10 ENE 1019,5 45 55 0,0
16.08.2017 11:00:00 23,4 15,4 25,0 20,6 18,9 11 6 21 12 ENE 1019,9 50 57 0,0
16.08.2017 10:00:00 21,1 16,3 25,3 20,6 18,9 4 2 8 4 WNW 1020,4 19 60 0,0
16.08.2017 09:00:00 18,6 15,8 21,9 20,7 18,9 4 2 7 4 W 1020,7 37 60 0,0
16.08.2017 08:00:00 17,3 16,2 14,1 20,8 18,9 5 3 9 5 E 1020,9 10 55 0,0
16.08.2017 07:00:00 15,4 14,1 12,6 20,9 18,9 6 3 9 5 ENE 1021,0 18 0 0,0
16.08.2017 06:00:00 15,5 14,2 14,1 21,0 18,9 8 4 11 6 ESE 1021,1 17 0 0,2
16.08.2017 05:00:00 16,8 15,5 15,8 21,0 18,9 8 5 11 6 ESE 1021,0 12 0 0,0
16.08.2017 04:00:00 16,9 15,6 14,3 21,1 18,9 5 3 8 4 S 1021,3 9 0 0,0
16.08.2017 03:00:00 17,5 15,7 15,7 21,2 18,9 6 3 18 10 W 1020,8 20 0 0,0
16.08.2017 02:00:00 18,5 16,3 17,7 21,2 18,9 14 8 32 17 E 1020,2 19 0 0,0
16.08.2017 01:00:00 19,3 16,1 17,8 21,3 18,9 22 12 27 15 ESE 1020,8 22 0 0,2
16.08.2017 00:00:00 18,7 16,8 17,9 21,3 18,9 6 3 13 7 ESE 1022,2 17 0 0,2
15.08.2017 23:00:00 18,9 17,0 17,7 21,3 18,9 3 2 9 5 W 1021,7 20 0 0,0
15.08.2017 22:00:00 19,1 17,2 17,3 21,3 18,9 4 2 11 6 S 1021,0 21 0 0,0
15.08.2017 21:00:00 19,6 17,4 17,9 21,3 18,9 3 1 12 7 E 1020,2 15 0 0,0
15.08.2017 20:00:00 20,6 17,0 18,9 21,1 18,9 10 5 57 31 SSW 1019,9 15 0 0,6
15.08.2017 19:00:00 26,3 9,2 24,4 20,9 18,9 5 3 18 10 S 1018,0 38 0 0,0
15.08.2017 18:00:00 27,8 8,6 27,9 20,8 18,9 8 4 28 15 SSW 1017,5 39 27 0,0
15.08.2017 17:00:00 28,3 10,5 29,5 20,6 18,9 17 9 37 20 SW 1017,6 41 28 0,0
15.08.2017 16:00:00 29,0 11,5 33,0 20,5 18,9 17 9 28 15 SW 1017,1 41 60 0,0
15.08.2017 15:00:00 28,5 12,4 32,3 20,3 18,9 9 5 21 11 SW 1017,3 20 58 0,0
15.08.2017 14:00:00 26,1 12,2 28,0 20,2 18,9 9 5 16 8 S 1018,0 24 4 0,0
15.08.2017 13:00:00 25,4 10,8 27,5 20,2 18,9 13 7 24 13 SSW 1018,5 38 17 0,0
15.08.2017 12:00:00 26,6 11,5 28,0 20,2 18,9 12 7 34 18 WSW 1018,7 23 60 0,0
15.08.2017 11:00:00 24,7 10,2 28,5 20,2 18,9 9 5 16 9 SW 1019,4 24 60 0,0
15.08.2017 10:00:00 23,0 11,1 24,6 20,3 18,8 5 3 15 8 SW 1019,9 25 60 0,0
15.08.2017 09:00:00 20,9 12,8 19,5 20,4 18,9 10 6 18 10 E 1020,2 27 60 0,0
15.08.2017 08:00:00 17,3 12,6 12,5 20,5 18,8 11 6 17 9 E 1020,4 20 58 0,0
15.08.2017 07:00:00 13,6 10,9 11,8 20,7 18,9 6 3 13 7 SE 1020,6 26 0 0,0
15.08.2017 06:00:00 14,0 10,4 12,0 20,8 18,9 7 4 12 6 ESE 1020,0 32 0 0,0
15.08.2017 05:00:00 16,5 10,8 12,7 20,9 18,8 8 4 11 6 SSE 1019,7 39 0 0,0
15.08.2017 04:00:00 18,4 9,5 13,7 20,9 18,8 4 2 9 5 SE 1019,6 46 0 0,0
15.08.2017 03:00:00 18,8 9,0 13,8 21,0 18,8 5 3 13 7 W 1019,7 48 0 0,0
15.08.2017 02:00:00 18,8 10,4 15,4 21,1 18,9 8 4 34 18 W 1019,2 55 0 0,0
15.08.2017 01:00:00 20,5 8,8 17,4 21,2 18,9 9 5 27 15 WNW 1019,0 59 0 0,0
15.08.2017 00:00:00 22,6 8,3 19,4 21,2 18,9 13 7 29 16 SW 1018,7 60 0 0,0
14.08.2017 23:00:00 23,1 9,8 19,9 21,2 18,9 13 7 25 14 SW 1018,2 58 0 0,0
14.08.2017 22:00:00 24,3 10,6 20,6 21,1 18,9 10 6 28 15 W 1017,7 52 0 0,0
14.08.2017 21:00:00 24,6 9,3 20,7 21,0 18,9 6 3 20 11 NNW 1017,1 52 24 0,0
14.08.2017 20:00:00 27,5 9,8 27,6 20,8 18,9 13 7 36 20 WSW 1015,8 41 60 0,0
14.08.2017 19:00:00 29,0 10,2 30,5 20,6 18,9 15 8 30 16 SW 1015,4 32 58 0,0
14.08.2017 18:00:00 29,9 10,9 31,9 20,4 18,8 18 10 30 16 SSW 1015,4 26 60 0,0
14.08.2017 17:00:00 30,0 12,4 33,6 20,1 18,8 14 8 28 15 SSW 1015,5 20 60 0,0
14.08.2017 16:00:00 29,5 13,7 33,1 19,9 18,9 11 6 35 19 SW 1015,7 30 60 0,0
14.08.2017 15:00:00 28,7 14,5 33,0 19,7 18,9 13 7 25 13 SSW 1016,5 19 60 0,0
14.08.2017 14:00:00 27,7 13,6 32,3 19,6 18,9 12 6 21 11 WSW 1017,0 32 60 0,0
14.08.2017 13:00:00 26,5 13,9 30,2 19,5 18,9 10 5 21 11 SSW 1017,7 20 60 0,0
14.08.2017 12:00:00 24,2 15,7 29,5 19,5 18,8 7 4 16 9 W 1018,6 37 60 0,0
14.08.2017 11:00:00 23,4 14,9 25,3 19,5 18,9 3 2 9 5 SSE 1018,7 35 60 0,0
14.08.2017 10:00:00 20,9 15,0 21,6 19,6 18,9 8 4 15 8 E 1019,0 16 55 0,0
14.08.2017 09:00:00 17,9 14,6 19,2 19,7 18,9 8 4 11 6 ESE 1019,5 16 56 0,0
14.08.2017 08:00:00 14,8 13,7 11,3 19,8 18,9 4 2 7 4 E 1019,8 17 42 0,2
14.08.2017 07:00:00 12,6 11,5 10,2 19,9 18,9 6 3 8 5 ESE 1019,8 11 0 0,0
14.08.2017 06:00:00 12,5 11,2 10,6 20,0 18,9 4 2 10 5 E 1019,9 10 0 0,0
14.08.2017 05:00:00 12,4 11,0 10,4 20,1 18,9 7 4 9 5 ESE 1020,0 16 0 0,0
14.08.2017 04:00:00 13,6 12,3 10,6 20,2 18,9 5 3 8 4 E 1019,9 34 0 0,0
14.08.2017 03:00:00 13,3 11,4 10,6 20,3 18,9 8 4 9 5 ESE 1019,9 34 0 0,0
14.08.2017 02:00:00 14,0 12,0 10,8 20,3 18,9 5 3 9 5 E 1019,9 46 0 0,0
14.08.2017 01:00:00 15,1 13,0 12,4 20,4 18,9 4 2 10 5 E 1019,8 60 0 0,0
14.08.2017 00:00:00 15,5 12,6 13,7 20,4 18,9 8 4 11 6 ESE 1019,9 60 0 0,0
13.08.2017 23:00:00 17,6 13,5 15,7 20,4 18,9 5 3 11 6 S 1019,7 60 0 0,0
13.08.2017 22:00:00 19,1 13,3 16,5 20,3 18,9 4 2 16 9 ESE 1019,4 60 0 0,0
13.08.2017 21:00:00 20,6 13,5 19,3 20,2 18,9 10 5 17 9 NNE 1018,7 60 25 0,0
13.08.2017 20:00:00 22,2 13,5 22,2 20,0 18,9 6 3 21 12 N 1018,5 59 34 0,0
13.08.2017 19:00:00 23,7 13,6 25,0 19,8 19,0 16 9 23 13 N 1018,3 57 54 0,0
13.08.2017 18:00:00 24,4 13,0 28,4 19,6 18,9 12 7 26 14 N 1018,2 60 60 0,0
13.08.2017 17:00:00 24,5 13,1 26,0 19,4 19,0 12 6 22 12 N 1018,4 16 45 0,0
13.08.2017 16:00:00 24,4 13,3 27,5 19,2 19,0 9 5 20 11 NNW 1018,4 51 38 0,0
13.08.2017 15:00:00 24,1 12,7 27,2 19,1 19,0 10 6 20 11 N 1018,8 31 42 0,0
13.08.2017 14:00:00 23,4 13,0 28,2 19,0 19,0 10 5 22 12 NE 1019,3 32 57 0,0
13.08.2017 13:00:00 21,6 12,4 22,6 18,9 19,0 11 6 21 11 NNE 1020,1 34 23 0,0
13.08.2017 12:00:00 20,5 12,5 22,8 18,9 19,0 12 6 19 10 NNE 1020,5 32 4 0,0
13.08.2017 11:00:00 20,2 11,7 22,0 19,0 19,0 5 3 12 7 SSE 1020,9 27 37 0,0
13.08.2017 10:00:00 18,2 11,3 19,2 19,0 19,0 6 3 11 6 SE 1021,4 42 24 0,0
13.08.2017 09:00:00 16,3 11,9 14,6 19,1 19,0 2 1 5 3 E 1021,4 32 28 0,0
13.08.2017 08:00:00 13,7 10,9 13,1 19,2 19,0 3 1 11 6 S 1021,4 29 5 0,0
13.08.2017 07:00:00 12,9 10,6 11,0 19,3 19,0 5 3 9 5 ESE 1021,5 40 0 0,0
13.08.2017 06:00:00 12,8 10,2 10,8 19,4 19,0 5 3 8 5 E 1021,3 19 0 0,0
13.08.2017 05:00:00 12,4 10,3 10,8 19,5 19,0 3 1 13 7 W 1021,6 47 0 0,0
13.08.2017 04:00:00 12,1 9,5 10,2 19,6 19,0 3 1 10 5 SSE 1021,9 50 0 0,0
13.08.2017 03:00:00 11,5 9,4 8,9 19,7 19,1 8 4 10 5 E 1021,9 40 0 0,0
13.08.2017 02:00:00 12,2 9,4 9,9 19,8 19,1 8 4 11 6 ESE 1022,1 37 0 0,0
13.08.2017 01:00:00 13,1 10,1 10,9 19,8 19,1 6 3 11 6 E 1022,2 48 0 0,0
13.08.2017 00:00:00 13,8 10,2 10,7 19,9 19,1 8 4 10 6 NE 1022,2 58 0 0,0
12.08.2017 23:00:00 17,0 9,2 12,9 19,8 19,1 5 3 16 9 NNE 1021,5 60 0 0,0
12.08.2017 22:00:00 16,0 9,2 12,8 19,8 19,1 7 4 14 8 ENE 1021,5 60 0 0,0
12.08.2017 21:00:00 18,3 9,1 16,8 19,7 19,1 10 5 21 12 NNE 1020,5 60 25 0,0
12.08.2017 20:00:00 21,0 8,9 22,2 19,6 19,1 12 7 23 13 N 1020,1 19 60 0,0
12.08.2017 19:00:00 21,9 9,1 25,1 19,3 19,1 14 7 27 15 N 1019,9 26 58 0,0
12.08.2017 18:00:00 22,4 10,2 26,7 19,2 19,2 16 9 28 15 N 1020,0 47 60 0,0
12.08.2017 17:00:00 22,5 10,6 23,7 19,0 19,2 11 6 27 15 N 1020,2 38 47 0,0
12.08.2017 16:00:00 22,2 10,7 23,6 18,8 19,2 11 6 27 15 NE 1020,3 44 49 0,0
12.08.2017 15:00:00 20,8 9,4 22,4 18,6 19,2 13 7 24 13 NE 1021,1 18 29 0,0
12.08.2017 14:00:00 20,9 10,1 22,0 18,5 19,2 10 5 27 14 NNE 1021,5 60 44 0,0
12.08.2017 13:00:00 20,4 11,9 25,0 18,4 19,2 10 6 23 12 NNE 1021,7 18 57 0,0
12.08.2017 12:00:00 19,0 10,8 20,6 18,4 19,2 14 7 29 15 NNE 1022,0 27 58 0,0
12.08.2017 11:00:00 17,7 11,7 17,3 18,5 19,2 18 10 27 15 N 1022,3 36 38 0,0
12.08.2017 10:00:00 16,9 11,6 20,0 18,5 19,2 4 2 13 7 NNW 1022,2 39 58 0,0
12.08.2017 09:00:00 15,0 11,0 14,1 18,6 19,2 8 4 19 11 NE 1022,3 56 60 0,0
12.08.2017 08:00:00 11,2 9,8 10,5 18,7 19,3 4 2 6 4 SE 1022,7 39 44 0,0
12.08.2017 07:00:00 10,1 9,0 8,8 18,9 19,3 4 2 10 6 E 1022,6 24 1 0,0
12.08.2017 06:00:00 9,7 8,6 8,1 18,9 19,3 6 4 9 5 ESE 1022,4 16 0 0,0
12.08.2017 05:00:00 9,9 8,8 8,0 19,0 19,3 4 2 10 5 ENE 1022,6 8 0 0,0
12.08.2017 04:00:00 10,1 9,0 7,7 19,1 19,3 7 4 9 5 E 1022,8 17 0 0,0
12.08.2017 03:00:00 10,4 9,2 7,6 19,2 19,3 6 3 9 5 SSE 1022,7 20 0 0,0

tt = Température de l'air
td = dewpoint
tt 5cm = Température de l'air 5cm
tt -20cm = Température de l'air -20cm
tt -100cm = Température de l'air -100cm
ff = Vitesse du vent
fx = gusts
dd = Direction du vent
ppp = reduced air pressure
vv = visibility
sd = Ensoleillement
rr = Quantités de précipitations

stations d'obs. à proximité